STARLINK-35977

Last updated on Wed Dec 31 2025 00:02:06 GMT+0000 (Coordinated Universal Time)

1 66604U 25270S 25364.59890635 .00097619 00000+0 23155-2 0 9992 2 66604 43.0004 89.4557 0001725 277.1672 82.8988 15.40684794 7109
UTC large
Height (km)
Speed (km/s)
/
Latitude / Longitude
Inclination (degrees)
Orbital Period (minutes)
Azimuth
Elevation
Range (km)
Doppler Factor

Next 0 passes for location: London (51.5072 / 0.1276)

Sorry there are no passes over London.